SCP
0 0 0 0 0 0 0 0 0 0 0 0 0 0 0 0 0 0 0 0 0 0 0 0 0 0 0 0 0 0 0 0 0 0 -0 -0 -0 -0 0 0 0 0 0
0 0 0 0 0 0 0 0 0 0 0 0 0 0 0 0 0 0 0 0 0 0 0 0 0 0 0 0 0 0 0 0 0 0 -0 -0 -0 0 0 0 0 0 0
0 0 0 0 0 0 0 0 0 0 0 0 0 0 0 0 0 0 0 0 0 0 0 0 0 0 0 0 0 0 0 0 0 0 -0 0 0 0 0 0 -0 -0 0
0 0 0 0 0 0 0 0 0 0 0 0 0 0 0 0 0 0 0 0 0 0 0 0 0 0 0 0 0 0 0 0 0 0 0 0 0 0 0 0 0 0 0
0 0 0 0 0 0 0 0 0 0 0 0 0 0 0 0 0 0 0 0 0 0 0 0 0 0 0 0 0 0 0 0 0 0 0 0 0 0 0 0 0 0 0
0 0 0 0 0 0 0 0 0 0 0 0 0 0 0 0 0 0 0 0 0 0 0 0 0 0 0 0 0 0 0 0 0 0 0 0 0 0 0 0 0 0 0
0 0 0 0 0 0 0 0 0 0 0 0 0 0 0 0 0 0 0 0 0 0 0 0 0 0 0 0 0 0 0 0 0 0 0 0 0 0 0 0 0 0 0
0 0 0 0 0 0 0 0 0 0 0 0 0 0 0 0 0 0 0 0 0 0 0 0 0 0 0 0 0 0 0 0 0 0 0 0 0 0 0 0 0 0 0
0 0 0 0 0 0 0 0 0 0 0 0 0 0 0 0 0 0 0 0 0 0 0 0 0 0 0 0 0 0 0 0 0 0 0 0 0 0 0 0 0 0 0
0 0 0 0 0 0 0 0 0 0 0 0 0 0 0 0 0 0 0 0 0 0 0 0 0 0 0 0 0 0 0 0 0 0 0 0 0 0 0 0 0 0 0
0 0 0 0 0 0 0 0 0 0 0 0 0 0 0 0 0 0 0 0 0 0 0 0 0 0 0 0 0 0 0 0 0 0 0 0 0 0 0 0 0 0 0
0 0 0 0 0 0 0 0 0 0 0 0 0 0 0 0 0 0 0 0 0 0 0 0 0 0 0 0 0 0 0 0 0 0 0 0 0 0 0 0 -0 -0 -0
0 0 0 0 0 0 0 0 0 0 0 0 0 0 0 0 0 0 0 0 0 0 0 0 0 0 0 0 0 0 0 0 0 0 0 0 0 0 0 0 0 -0 -0
0 0 0 0 0 0 0 0 0 0 0 0 0 0 0 0 0 0 0 0 0 0 0 0 0 0 0 0 0 0 0 0 0 0 0 0 0 0 0 0 0 0 0
0 0 0 0 0 0 0 0 0 0 0 0 0 0 0 0 0 0 0 0 0 0 0 0 0 0 0 0 0 0 0 0 0 0 0 0 0 0 0 0 0 0 0
0 0 0 0 0 0 0 0 0 0 0 0 0 0 0 0 0 0 0 0 0 0 0 0 0 0 0 0 0 0 0 0 0 0 0 0 0 0 0 0 0 0 0
0 0 0 0 0 0 0 0 0 0 0 0 0 0 0 0 0 0 0 0 0 0 0 0 0 0 0 0 0 0 0 0 0 0 0 0 0 0 0 0 0 0 0
0 0 0 0 0 0 0 0 0 0 0 0 0 0 0 0 0 0 0 0 0 0 0 0 0 0 0 0 0 0 0 0 0 0 0 0 0 0 0 0 0 0 0
0 0 0 0 0 0 0 0 0 0 0 0 0 0 0 0 0 0 0 0 0 0 0 0 0 0 0 0 0 0 0 0 0 0 0 0 0 0 0 0 0 0 0
0 0 0 0 0 0 0 0 0 0 0 0 0 0 0 0 0 0 0 0 0 0 0 0 0 0 0 0 0 0 0 0 0 0 0 0 0 0 0 0 0 0 0
0 0 0 0 0 0 0 0 0 0 0 0 0 0 0 0 0 0 0 0 0 0 0 0 0 0 0 0 0 0 0 0 0 0 0 0 0 0 0 0 0 0 0
0 0 0 0 0 0 0 0 0 0 0 0 0 0 0 0 0 0 0 0 0 0 0 0 0 0 0 0 0 0 0 0 0 0 0 0 0 0 0 0 0 0 0
0 0 0 0 0 0 0 0 0 0 0 0 0 0 0 0 0 0 0 0 0 0 0 0 0 0 0 0 0 0 0 0 0 0 0 0 0 0 0 0 0 0 0
0 0 0 0 0 0 0 0 0 0 0 0 0 0 0 0 0 0 0 0 0 0 0 0 0 0 0 0 0 0 0 0 0 0 0 0 0 0 0 0 0 0 0
0 0 0 0 0 0 0 0 0 0 0 0 0 0 0 0 0 0 0 0 0 0 0 0 0 0 0 0 0 0 0 0 0 0 0 0 0 0 0 0 0 0 0
0 0 0 0 0 0 0 0 0 0 0 0 0 0 0 0 0 0 0 0 0 0 0 0 0 0 0 0 0 0 0 0 0 0 0 0 0 0 0 0 0 0 0
Wind_Speed_500mb
44 40 41 33 22 13 8 8 9 13 12 11 11 9 8 5 4 3 4 7 17 17 11 7 6 7 9 4 9 9 8 8 7 8 12 16 22 20 16 16 14 15 14
47 42 43 36 25 18 13 10 10 14 22 21 15 13 15 16 12 10 9 9 11 7 3 5 11 11 11 12 10 7 6 8 10 10 11 12 19 21 19 17 14 14 15
34 37 40 40 32 23 21 17 15 12 15 18 16 14 14 14 12 10 10 12 15 18 22 25 29 27 21 20 18 19 16 13 10 10 9 9 13 15 22 18 16 14 12
28 33 41 39 34 27 21 18 16 11 11 11 10 8 6 4 7 9 10 12 16 20 24 28 30 29 25 22 19 17 14 12 9 9 11 10 8 15 16 18 22 20 14
30 35 38 41 35 26 21 18 15 12 11 10 8 7 5 2 3 6 10 12 13 17 21 23 24 25 20 15 15 15 10 6 4 5 8 15 17 22 25 25 23 23 16
27 33 36 39 34 24 21 16 13 11 8 8 7 7 6 6 4 2 7 11 14 16 18 19 19 15 8 4 14 5 4 1 3 6 6 9 20 23 29 30 29 23 14
32 31 30 37 35 28 20 16 13 11 9 8 6 5 3 1 3 2 1 5 11 16 15 11 9 7 3 7 6 3 5 10 11 1 7 14 19 23 26 19 9 7 10
35 29 26 30 30 27 21 17 14 12 11 8 6 4 1 2 5 7 9 9 7 6 5 3 7 7 1 8 12 7 10 11 11 7 7 11 14 20 31 31 19 21 27
30 26 26 27 28 25 21 17 15 13 12 10 11 12 11 11 6 5 4 6 6 3 7 5 4 8 9 19 21 20 18 15 19 30 32 37 39 47 51 53 47 31 21
28 25 25 25 28 26 23 21 19 15 11 9 9 8 6 4 2 3 6 5 6 7 9 9 13 16 17 23 24 21 18 34 40 40 40 44 48 44 50 54 53 32 24
30 28 27 25 25 24 23 21 19 16 14 11 9 6 4 2 4 7 10 13 12 14 16 19 23 25 28 29 29 26 30 44 49 56 41 37 41 49 40 23 36 37 37
35 32 29 29 28 24 23 20 17 15 13 11 9 8 8 9 11 11 13 16 16 19 23 25 29 24 31 32 32 33 35 50 53 52 55 44 42 45 52 53 53 53 53
33 34 33 34 30 28 22 20 18 16 14 12 12 11 11 12 14 14 16 18 19 22 21 23 22 23 32 35 34 34 33 35 44 49 47 47 44 45 46 45 48 49 49
41 40 39 35 32 28 26 24 21 19 18 16 15 15 14 13 13 15 18 20 22 22 23 25 29 35 37 39 35 33 28 25 23 31 31 31 39 45 44 30 32 41 43
46 45 42 38 35 31 30 26 23 23 21 20 17 14 14 15 16 18 19 22 25 25 25 27 30 32 35 39 35 32 28 25 21 16 8 6 5 10 27 40 38 38 38
49 47 44 41 37 34 31 29 27 24 23 19 16 16 15 16 17 20 22 24 25 25 26 27 29 30 31 29 31 30 29 25 22 18 14 13 11 4 23 34 33 35 36
55 50 47 44 40 38 34 31 29 27 24 20 19 18 18 19 20 22 23 26 27 28 27 27 27 27 28 27 25 23 20 19 16 14 11 8 7 8 7 15 26 27 28
58 56 51 49 43 40 36 35 31 29 26 24 22 20 20 21 24 25 27 30 31 31 30 30 29 30 30 28 26 24 21 19 17 15 12 9 9 8 8 9 9 10 12
62 60 57 51 46 43 40 38 35 33 28 26 24 23 23 24 25 27 29 32 32 31 31 30 31 27 29 28 25 23 21 18 16 14 12 10 9 8 8 8 7 7 8
66 61 59 53 50 47 44 41 38 36 32 30 27 25 25 25 25 26 29 30 30 31 31 31 30 31 28 27 25 20 17 14 12 12 10 8 7 6 6 6 5 6 7
71 70 66 60 57 53 51 47 44 40 36 33 30 29 27 28 28 29 31 32 32 31 31 30 30 29 30 28 22 18 15 11 9 8 6 6 3 2 3 4 5 6 8
82 77 70 65 61 56 53 49 44 43 39 34 34 33 32 31 31 32 33 33 32 33 33 32 30 29 26 21 19 15 7 2 3 2 2 1 2 4 5 6 6 7 7
92 86 78 71 64 60 56 54 52 48 45 42 40 38 36 34 34 36 37 35 35 34 33 31 27 25 23 21 18 10 8 4 4 5 5 6 6 9 9 9 11 11 11
93 84 78 72 67 63 64 62 57 52 50 46 43 42 40 39 38 39 39 39 37 36 33 29 27 24 22 21 19 14 11 8 7 3 4 9 10 14 15 16 17 14 16
92 89 82 76 71 70 69 63 57 52 48 48 48 45 44 42 40 41 39 38 36 34 32 29 27 26 23 24 19 17 14 11 10 7 4 11 13 13 16 19 20 20 19
88 90 86 83 78 74 71 66 61 58 58 56 52 50 48 45 44 44 41 39 36 33 32 29 28 26 22 19 16 15 14 13 8 9 9 13 16 20 20 21 18 19 22
Wind_Direction_500mb
192 193 195 199 192 193 187 186 196 198 195 191 172 168 142 108 82 150 165 110 108 88 73 18 2 281 273 344 2 346 341 341 345 8 24 31 28 23 15 33 38 23 17
196 194 197 207 219 222 228 231 235 229 217 220 229 246 268 292 294 287 270 250 244 221 205 262 313 304 294 272 272 281 295 320 338 345 5 19 10 359 3 10 2 10 11
188 192 198 204 212 218 220 223 243 243 227 228 232 244 255 275 292 290 288 277 276 271 277 284 289 296 300 285 281 280 282 287 310 342 348 41 347 313 320 323 339 335 341
169 196 197 197 205 212 223 237 250 248 218 199 194 195 211 267 303 310 306 302 297 288 286 287 289 294 291 289 284 277 288 287 305 328 330 325 325 328 314 314 323 325 316
159 204 194 195 199 206 218 234 241 233 222 211 200 197 192 209 318 326 323 317 312 307 304 301 301 299 300 282 269 270 280 308 325 315 6 340 308 290 304 309 306 318 317
174 204 195 193 198 208 225 238 252 246 240 234 218 206 189 172 145 23 344 334 327 317 311 310 311 324 317 305 275 283 268 326 28 327 350 298 308 313 307 307 296 299 284
187 205 197 196 198 208 218 229 232 227 229 227 222 200 154 19 359 45 18 332 331 326 323 327 339 34 113 282 333 89 115 143 137 202 264 301 315 324 335 346 6 89 142
189 195 190 192 196 204 210 221 223 216 212 201 195 181 166 308 311 322 317 316 314 319 338 352 91 120 45 27 79 112 126 125 112 54 31 10 48 75 78 90 93 112 134
195 187 180 187 194 202 207 212 210 202 196 215 244 259 265 273 276 283 344 342 334 34 100 177 84 67 90 99 99 83 79 92 106 81 88 90 101 99 90 82 99 128 139
191 191 189 188 195 198 202 202 203 210 222 234 252 259 246 262 310 43 68 66 59 68 100 92 93 94 102 113 99 83 93 114 106 104 97 91 97 94 78 73 71 72 60
188 193 193 192 197 196 196 197 203 210 223 234 234 226 202 159 101 86 90 85 84 93 105 107 105 109 102 106 102 98 104 119 115 95 88 86 76 73 70 54 42 29 36
190 193 195 196 199 196 194 195 204 214 214 211 202 191 160 136 124 115 110 108 106 110 110 113 120 119 124 113 110 122 116 116 120 103 83 79 74 64 64 61 55 56 54
194 194 196 201 199 199 200 202 204 209 206 196 181 170 161 148 143 137 121 116 109 104 108 114 119 116 119 116 122 129 130 120 114 115 104 86 76 65 55 52 55 57 61
199 199 203 202 202 199 201 205 204 199 196 190 183 177 163 153 143 134 133 124 116 113 114 117 120 119 120 117 127 131 136 142 130 111 110 97 84 71 67 31 20 59 59
205 202 203 202 202 200 203 206 201 200 197 192 184 179 173 161 155 148 142 135 131 128 126 124 123 129 133 132 133 139 143 151 161 178 174 253 11 25 60 70 67 67 63
207 207 203 202 202 203 206 206 202 198 197 194 188 186 181 168 163 155 150 146 145 142 136 134 134 135 138 143 150 160 163 168 180 197 211 241 268 291 79 81 75 72 64
210 208 203 204 204 206 207 205 200 198 197 195 193 188 181 171 168 162 157 149 142 139 138 137 136 137 140 140 145 150 156 166 176 177 179 160 138 126 119 100 89 85 75
212 211 205 206 207 208 205 204 198 198 198 197 192 187 181 175 171 167 162 154 149 145 146 144 141 141 137 137 136 135 134 133 129 125 117 104 96 87 80 66 56 53 51
213 213 209 208 209 209 204 204 200 200 200 197 192 187 181 177 176 169 163 159 155 152 149 147 140 138 135 132 130 129 127 125 121 115 114 110 104 100 93 87 70 52 34
214 215 213 209 209 209 206 203 201 200 199 198 192 188 182 179 176 167 167 162 158 157 153 149 145 141 139 135 131 129 126 122 119 121 116 107 91 78 73 67 52 31 18
217 216 213 209 211 210 206 203 201 201 198 196 191 188 184 180 176 169 171 168 164 160 154 148 148 148 143 138 133 124 121 113 128 132 116 107 86 59 36 26 17 12 6
216 215 214 212 213 209 207 205 206 201 197 194 192 190 186 178 175 172 175 175 167 162 159 158 157 153 151 153 143 129 111 101 56 195 184 207 348 340 340 347 347 341 348
216 216 216 213 212 208 204 200 201 200 201 194 192 190 186 179 178 177 177 176 170 169 166 165 165 165 165 164 167 147 157 185 274 240 274 297 304 323 325 327 331 328 328
218 216 217 215 212 208 205 206 210 208 202 197 195 191 187 184 182 183 181 179 177 175 174 174 173 172 165 167 173 188 190 182 184 248 307 317 315 321 325 327 329 329 325
219 218 216 214 213 209 209 209 209 204 201 200 196 192 189 188 186 187 185 183 182 183 181 182 180 178 179 174 180 175 173 184 206 214 312 311 312 319 325 320 322 323 320
220 218 215 214 213 210 211 208 206 204 202 201 198 196 194 191 192 191 187 187 187 186 187 188 189 190 194 194 194 195 198 203 208 210 202 251 284 298 312 312 308 306 311
Wind_Speed_850mb
44 40 41 33 22 13 8 8 9 13 12 11 11 9 8 5 4 3 4 7 17 17 11 7 6 7 9 4 9 9 8 8 7 8 12 16 22 20 16 16 14 15 14
47 42 43 36 25 18 13 10 10 14 22 21 15 13 15 16 12 10 9 9 11 7 3 5 11 11 11 12 10 7 6 8 10 10 11 12 19 21 19 17 14 14 15
34 37 40 40 32 23 21 17 15 12 15 18 16 14 14 14 12 10 10 12 15 18 22 25 29 27 21 20 18 19 16 13 10 10 9 9 13 15 22 18 16 14 12
28 33 41 39 34 27 21 18 16 11 11 11 10 8 6 4 7 9 10 12 16 20 24 28 30 29 25 22 19 17 14 12 9 9 11 10 8 15 16 18 22 20 14
30 35 38 41 35 26 21 18 15 12 11 10 8 7 5 2 3 6 10 12 13 17 21 23 24 25 20 15 15 15 10 6 4 5 8 15 17 22 25 25 23 23 16
27 33 36 39 34 24 21 16 13 11 8 8 7 7 6 6 4 2 7 11 14 16 18 19 19 15 8 4 14 5 4 1 3 6 6 9 20 23 29 30 29 23 14
32 31 30 37 35 28 20 16 13 11 9 8 6 5 3 1 3 2 1 5 11 16 15 11 9 7 3 7 6 3 5 10 11 1 7 14 19 23 26 19 9 7 10
35 29 26 30 30 27 21 17 14 12 11 8 6 4 1 2 5 7 9 9 7 6 5 3 7 7 1 8 12 7 10 11 11 7 7 11 14 20 31 31 19 21 27
30 26 26 27 28 25 21 17 15 13 12 10 11 12 11 11 6 5 4 6 6 3 7 5 4 8 9 19 21 20 18 15 19 30 32 37 39 47 51 53 47 31 21
28 25 25 25 28 26 23 21 19 15 11 9 9 8 6 4 2 3 6 5 6 7 9 9 13 16 17 23 24 21 18 34 40 40 40 44 48 44 50 54 53 32 24
30 28 27 25 25 24 23 21 19 16 14 11 9 6 4 2 4 7 10 13 12 14 16 19 23 25 28 29 29 26 30 44 49 56 41 37 41 49 40 23 36 37 37
35 32 29 29 28 24 23 20 17 15 13 11 9 8 8 9 11 11 13 16 16 19 23 25 29 24 31 32 32 33 35 50 53 52 55 44 42 45 52 53 53 53 53
33 34 33 34 30 28 22 20 18 16 14 12 12 11 11 12 14 14 16 18 19 22 21 23 22 23 32 35 34 34 33 35 44 49 47 47 44 45 46 45 48 49 49
41 40 39 35 32 28 26 24 21 19 18 16 15 15 14 13 13 15 18 20 22 22 23 25 29 35 37 39 35 33 28 25 23 31 31 31 39 45 44 30 32 41 43
46 45 42 38 35 31 30 26 23 23 21 20 17 14 14 15 16 18 19 22 25 25 25 27 30 32 35 39 35 32 28 25 21 16 8 6 5 10 27 40 38 38 38
49 47 44 41 37 34 31 29 27 24 23 19 16 16 15 16 17 20 22 24 25 25 26 27 29 30 31 29 31 30 29 25 22 18 14 13 11 4 23 34 33 35 36
55 50 47 44 40 38 34 31 29 27 24 20 19 18 18 19 20 22 23 26 27 28 27 27 27 27 28 27 25 23 20 19 16 14 11 8 7 8 7 15 26 27 28
58 56 51 49 43 40 36 35 31 29 26 24 22 20 20 21 24 25 27 30 31 31 30 30 29 30 30 28 26 24 21 19 17 15 12 9 9 8 8 9 9 10 12
62 60 57 51 46 43 40 38 35 33 28 26 24 23 23 24 25 27 29 32 32 31 31 30 31 27 29 28 25 23 21 18 16 14 12 10 9 8 8 8 7 7 8
66 61 59 53 50 47 44 41 38 36 32 30 27 25 25 25 25 26 29 30 30 31 31 31 30 31 28 27 25 20 17 14 12 12 10 8 7 6 6 6 5 6 7
71 70 66 60 57 53 51 47 44 40 36 33 30 29 27 28 28 29 31 32 32 31 31 30 30 29 30 28 22 18 15 11 9 8 6 6 3 2 3 4 5 6 8
82 77 70 65 61 56 53 49 44 43 39 34 34 33 32 31 31 32 33 33 32 33 33 32 30 29 26 21 19 15 7 2 3 2 2 1 2 4 5 6 6 7 7
92 86 78 71 64 60 56 54 52 48 45 42 40 38 36 34 34 36 37 35 35 34 33 31 27 25 23 21 18 10 8 4 4 5 5 6 6 9 9 9 11 11 11
93 84 78 72 67 63 64 62 57 52 50 46 43 42 40 39 38 39 39 39 37 36 33 29 27 24 22 21 19 14 11 8 7 3 4 9 10 14 15 16 17 14 16
92 89 82 76 71 70 69 63 57 52 48 48 48 45 44 42 40 41 39 38 36 34 32 29 27 26 23 24 19 17 14 11 10 7 4 11 13 13 16 19 20 20 19
88 90 86 83 78 74 71 66 61 58 58 56 52 50 48 45 44 44 41 39 36 33 32 29 28 26 22 19 16 15 14 13 8 9 9 13 16 20 20 21 18 19 22
Wind_Direction_850mb
192 193 195 199 192 193 187 186 196 198 195 191 172 168 142 108 82 150 165 110 108 88 73 18 2 281 273 344 2 346 341 341 345 8 24 31 28 23 15 33 38 23 17
196 194 197 207 219 222 228 231 235 229 217 220 229 246 268 292 294 287 270 250 244 221 205 262 313 304 294 272 272 281 295 320 338 345 5 19 10 359 3 10 2 10 11
188 192 198 204 212 218 220 223 243 243 227 228 232 244 255 275 292 290 288 277 276 271 277 284 289 296 300 285 281 280 282 287 310 342 348 41 347 313 320 323 339 335 341
169 196 197 197 205 212 223 237 250 248 218 199 194 195 211 267 303 310 306 302 297 288 286 287 289 294 291 289 284 277 288 287 305 328 330 325 325 328 314 314 323 325 316
159 204 194 195 199 206 218 234 241 233 222 211 200 197 192 209 318 326 323 317 312 307 304 301 301 299 300 282 269 270 280 308 325 315 6 340 308 290 304 309 306 318 317
174 204 195 193 198 208 225 238 252 246 240 234 218 206 189 172 145 23 344 334 327 317 311 310 311 324 317 305 275 283 268 326 28 327 350 298 308 313 307 307 296 299 284
187 205 197 196 198 208 218 229 232 227 229 227 222 200 154 19 359 45 18 332 331 326 323 327 339 34 113 282 333 89 115 143 137 202 264 301 315 324 335 346 6 89 142
189 195 190 192 196 204 210 221 223 216 212 201 195 181 166 308 311 322 317 316 314 319 338 352 91 120 45 27 79 112 126 125 112 54 31 10 48 75 78 90 93 112 134
195 187 180 187 194 202 207 212 210 202 196 215 244 259 265 273 276 283 344 342 334 34 100 177 84 67 90 99 99 83 79 92 106 81 88 90 101 99 90 82 99 128 139
191 191 189 188 195 198 202 202 203 210 222 234 252 259 246 262 310 43 68 66 59 68 100 92 93 94 102 113 99 83 93 114 106 104 97 91 97 94 78 73 71 72 60
188 193 193 192 197 196 196 197 203 210 223 234 234 226 202 159 101 86 90 85 84 93 105 107 105 109 102 106 102 98 104 119 115 95 88 86 76 73 70 54 42 29 36
190 193 195 196 199 196 194 195 204 214 214 211 202 191 160 136 124 115 110 108 106 110 110 113 120 119 124 113 110 122 116 116 120 103 83 79 74 64 64 61 55 56 54
194 194 196 201 199 199 200 202 204 209 206 196 181 170 161 148 143 137 121 116 109 104 108 114 119 116 119 116 122 129 130 120 114 115 104 86 76 65 55 52 55 57 61
199 199 203 202 202 199 201 205 204 199 196 190 183 177 163 153 143 134 133 124 116 113 114 117 120 119 120 117 127 131 136 142 130 111 110 97 84 71 67 31 20 59 59
205 202 203 202 202 200 203 206 201 200 197 192 184 179 173 161 155 148 142 135 131 128 126 124 123 129 133 132 133 139 143 151 161 178 174 253 11 25 60 70 67 67 63
207 207 203 202 202 203 206 206 202 198 197 194 188 186 181 168 163 155 150 146 145 142 136 134 134 135 138 143 150 160 163 168 180 197 211 241 268 291 79 81 75 72 64
210 208 203 204 204 206 207 205 200 198 197 195 193 188 181 171 168 162 157 149 142 139 138 137 136 137 140 140 145 150 156 166 176 177 179 160 138 126 119 100 89 85 75
212 211 205 206 207 208 205 204 198 198 198 197 192 187 181 175 171 167 162 154 149 145 146 144 141 141 137 137 136 135 134 133 129 125 117 104 96 87 80 66 56 53 51
213 213 209 208 209 209 204 204 200 200 200 197 192 187 181 177 176 169 163 159 155 152 149 147 140 138 135 132 130 129 127 125 121 115 114 110 104 100 93 87 70 52 34
214 215 213 209 209 209 206 203 201 200 199 198 192 188 182 179 176 167 167 162 158 157 153 149 145 141 139 135 131 129 126 122 119 121 116 107 91 78 73 67 52 31 18
217 216 213 209 211 210 206 203 201 201 198 196 191 188 184 180 176 169 171 168 164 160 154 148 148 148 143 138 133 124 121 113 128 132 116 107 86 59 36 26 17 12 6
216 215 214 212 213 209 207 205 206 201 197 194 192 190 186 178 175 172 175 175 167 162 159 158 157 153 151 153 143 129 111 101 56 195 184 207 348 340 340 347 347 341 348
216 216 216 213 212 208 204 200 201 200 201 194 192 190 186 179 178 177 177 176 170 169 166 165 165 165 165 164 167 147 157 185 274 240 274 297 304 323 325 327 331 328 328
218 216 217 215 212 208 205 206 210 208 202 197 195 191 187 184 182 183 181 179 177 175 174 174 173 172 165 167 173 188 190 182 184 248 307 317 315 321 325 327 329 329 325
219 218 216 214 213 209 209 209 209 204 201 200 196 192 189 188 186 187 185 183 182 183 181 182 180 178 179 174 180 175 173 184 206 214 312 311 312 319 325 320 322 323 320
220 218 215 214 213 210 211 208 206 204 202 201 198 196 194 191 192 191 187 187 187 186 187 188 189 190 194 194 194 195 198 203 208 210 202 251 284 298 312 312 308 306 311